Location: Bagnolo San Vito
(45.0833°N, 10.8833°E)
Time: 09:02:51
(UTC+00:00)

Sich 1 - Pass Details

Date: 03 March 2021
Orbit: 593 x 626 km, 82.5° (Epoch: 18 April)

Event Time Altitude Azimuth Distance (km) Brightness Sun altitude
Rises 17:26:57 0° 190° (S) 2,871 6.7 -4.4°
Reaches altitude 10° 17:29:09 10° 192° (SSW) 1,975 5.9 -4.8°
Maximum altitude 17:33:32 78° 278° (W) 640 3.3 -5.5°
Drops below altitude 10° 17:37:59 10° 6° (N) 2,007 5.6 -6.3°
Sets 17:40:14 0° 8° (N) 2,921 6.4 -6.7°
